{"data":{"norad_id":67928,"intl_designator":"2026-036AA","name":"STARLINK-36771","alt_names":[],"object_type":"PAYLOAD","status":"ACTIVE","operator":null,"country":"US","launch_date":"2026-02-22","launch_site_code":"AFETR","launch_vehicle":null,"mission":null,"orbit_class":"UNKNOWN","rcs_meters":null,"size_class":null,"mass_kg":null,"dimensions":null,"purposes":["comms"],"wikipedia_slug":null,"has_3d_model":false,"image_url":null,"decayed_at":null,"tle_current":{"epoch":"2026-09-19T15:09:53.402112Z","epoch_age_seconds":138216,"freshness":"FRESH","line1":"1 67928U 26036AA  26262.63186808  .00005707  00000+0  21673-3 0  9997","line2":"2 67928  43.0002 229.9307 0000883 291.3948  68.6809 15.27581845 33380","mean_motion":15.27581845,"eccentricity":8.83e-5,"inclination_deg":43.0002,"raan_deg":229.9307,"arg_perigee_deg":291.3948,"mean_anomaly_deg":68.6809,"bstar":0.00021673,"rev_number":3338,"period_min":94.266634859097,"perigee_km":482.43772920702,"apogee_km":483.64941369594,"semimajor_km":6861.1805714515,"source":"CELESTRAK","updated_at":"2026-09-20T09:00:43.705745Z"}}}